Regional Weather Roundup
Issued by NWS Newport/Morehead, NC

Home | Current Version | Previous Version | Text Only | Print | Product List | Glossary On
Versions: 1 2 3 4 5 6 7 8 9 10 11 12 13 14 15 16 17 18 19 20 21 22 23 24 25 26 27 28 29 30 31 32 33 34 35 36 37 38 39 40 41 42 43 44 45 46 47 48 49 50
000
ASUS42 KMHX 282222
RWRMHX
WEATHER ROUNDUP FOR EASTERN NORTH CAROLINA
NATIONAL WEATHER SERVICE NEWPORT/MOREHEAD CITY NC
500 PM EST FRI NOV 28 2014

NOTE: "FAIR" INDICATES FEW OR NO CLOUDS BELOW 12,000 FEET
WITH NO SIGNIFICANT WEATHER AND/OR OBSTRUCTIONS TO VISIBILITY

NCZ015>017-031-032-045>047-102-103-282300-
NORTH COAST

CITY           SKY/WX    TMP DP  RH WIND       PRES   REMARKS
EDENTON        CLEAR     39  27  62 CALM      30.31R
ELIZABETH CITY CLEAR     40  22  48 W7        30.31R
KITTY HAWK     CLEAR     39  23  53 N3        30.28S
MANTEO         PTCLDY    39  25  56 N5        30.30S

$$

NCZ045>047-081-094-103-104-282300-
CENTRAL COAST

CITY           SKY/WX    TMP DP  RH WIND       PRES   REMARKS
FRISCO         CLEAR     40  23  50 N7        30.29R
SWANQUARTER      N/A     39 N/A N/A N2        30.27S

$$

NCZ095-097-098-100-101-282300-
SOUTHERN COAST

CITY           SKY/WX    TMP DP  RH WIND       PRES   REMARKS
BEAUFORT       CLEAR     42  25  50 NW8       30.31R
CEDAR ISLAND     N/A     43 N/A N/A NW9G15    30.33S
JACKSONVILLE   CLEAR     42  23  46 NW7       30.31R
PINEY ISLAND   CLEAR     43  25  49 NW8       30.30R
WILMINGTON     CLEAR     44  23  43 N3        30.31S


$$

NCZ011>013-027>030-043-044-078>080-089-090>093-098-282300-
COASTAL PLAIN

CITY           SKY/WX    TMP DP  RH WIND       PRES   REMARKS
AHOSKIE        CLEAR     37  22  54 CALM      30.31S
CLINTON        CLEAR     43  25  49 CALM      30.31S
ELIZABETHTOWN  CLEAR     42  23  47 CALM      30.31R
GOLDSBORO      CLEAR     42  24  47 CALM      30.28F
GREENVILLE     CLEAR     41  23  48 CALM      30.30F
HAVELOCK       CLEAR     43  22  43 NW7       30.31R
KENANSVILLE    CLEAR     37  27  65 CALM      30.31S
KINSTON        CLEAR     41  25  52 CALM      30.30F
NEW BERN       CLEAR     43  23  45 NW6       30.32R
RICHLANDS      CLEAR     37  27  65 CALM      30.30F
ROCKY MOUNT    CLEAR     41  20  43 W3        30.30F
WASHINGTON     CLEAR     38  25  58 CALM      30.31S
WHITEVILLE     CLEAR     43  26  50 CALM      30.29F

$$

AMZ130-135-150-152-154-156-158-170-250-252-270-ANZ085-086-088-633-658-670-282300-
MARINE OBSERVATIONS

STATION/POSITION TIME  TEMP    WIND        PRES    WAVE   SWELL
                       AIR SEA DIR/SP/G            HT/PER HT/PER
                 (UTC) (F)     (DEG/KT/KT) (MB)    (FT/S) (FT/S)
CHESAPEAKE LIGHT 2200   41     330/ 10/ 11 1026.3
64 E VA BEACH    2200   43 64  340/ 16/ 21 1024.3    6/ 7   3/ 8
DUCK             2200   41 52  330/ 10/ 12 1024.9
2 E DUCK         2200      54                N/A     4/ 7   2/11
10 NE DUCK       2200      56                N/A     5/ 7   2/11
OREGON INLET     2200   39 51  330/  5/  7 1025.9
13E OREGON INLT  2200      59                N/A     6/ 7   2/11
HATTERAS CG      2200   43 53  330/ 13/ 19 1026.0
DIAMOND BUOY     2200   44     330/ 16/ 21 1025.6    4/ 8   3/ 8
17 S OCRACOKE    NOT AVBL
CAPE LOOKOUT     2200   43     340/  7/ 10 1026.2
BEAUFORT LAB     2200   43 54  340/  5/  8 1025.2
30 SE NEW RIVER  2200   46 66  330/ 12/ 16 1026.5    3/ 9   2/ 9
5 SE WRIGHTSVLE  2200   44 58  340/ 12/ 16 1026.3
225 S CAPE HAT   2109   58 72  340/ 16/ 21 1022.4    8/ 8
41 SE CHARLESTON 2200   48 72  350/ 10/ 16 1026.6    5/ 7   5/ 7

$$



USA.gov is the U.S. government's official web portal to all federal, state and local government web resources and services.